STARLINK-2101 (47381 NORAD) Tracking and Keplerian Element Data

This shows tracking and keplerian element data for the satellite.

Feedback or suggestion? Click here.




ElementValue
Catalog47381
NameSTARLINK-2101
Epoch Orbit188
Epoch Day99.91667824
Epoch Year2021
RAAN181.7425
Inclination53.0548
Eccentricity0.0004158
Argument of Perigee4.5846
Mean Anonmoly45.9444
Mean Motion15.6263048
Decay Rate0.00042509
L11 47381U 21005AJ 21099.91667824 .00042509 00000-0 46977-3 0 9991
L22 47381 53.0548 181.7425 0004158 4.5846 45.9444 15.62630480 1885

Live tracking and technical data element details for STARLINK-2101 (NORAD 47381). STARLINK-2101 can be tracked NOW for your location showing map with azimuth and elevation plus other details from your city location.

Track the satellite on the map from your city or location and see movement details for azimuth, elevation, latitude, longitude, range, height, and movement on the map or in text.







IsCatalogInMostPopularTable: catalog: 47381, numindb: 14
Update: records affected: 1



GetName: 47381 STARLINK-2101

Hit Count: updated at: Sat, 10 Apr 2021 18:13:33 GMT